Regional Weather Roundup
Issued by NWS Pendleton, OR

Home | Current Version | Previous Version | Text Only | Print | Product List | Glossary On
Versions: 1 2 3 4 5 6 7 8 9 10 11 12 13 14 15 16 17 18 19 20 21 22 23 24 25 26 27 28 29 30 31 32 33 34 35 36 37 38 39 40 41 42 43 44 45 46 47 48 49 50
000
ASUS46 KPDT 030510
RWRPDT
PENDLETON REGIONAL WEATHER ROUNDUP
NATIONAL WEATHER SERVICE PENDLETON OREGON
1000 PM PDT TUE SEP 2 2014

NOTE: FAIR INDICATES FEW OR NO CLOUDS BELOW 12,000 FEET WITH NO
SIGNIFICANT WEATHER AND/OR OBSTRUCTIONS TO VISIBILITY.

# INDICATES UNOFFICIAL STATION AND DATA

WAZ520-030610-
EAST SLOPES OF WASHINGTON CASCADES

CITY            SKY/WX      TMP DP  RH  WIND    PRES   REMARKS
#CLE ELUM HS    N/A         49  45  86  SW5     29.79R
#CLE ELUM 2NW   N/A         47  45  93  SW1     N/A
#CLE ELUM LAKE  N/A         46  41  83  CALM    29.74R
#CLIFFDEL 2NW   N/A         51  40  66  NW7     N/A
#EASTON DOT     N/A         47  37  68  N6      N/A
#GLENWOOD       N/A         56  46  69  S7      29.82R
#MANASTASH CYN  N/A         48  39  71  CALM    29.80R
#NELSON         N/A         49  46  89  CALM    29.80R
#NELSON 3SW     N/A         45  42  89  CALM    29.95R
#NILE           N/A         49  43  80  CALM    29.02R
#PEOH POINT     N/A         45  40  82  W8G25   N/A
#RONALD 2NW     N/A         49  43  80  W1      29.69R
#SOUTH BLEWITT  N/A         50  47  89  CALM    N/A
#TEANAWAY 4NE   N/A         49  47  93  CALM    N/A
#TROUT LAKE 1NE N/A         55  43  64  NW10    29.83R
$$

WAZ521-030610-
SIMCOE HIGHLANDS

CITY            SKY/WX      TMP DP  RH  WIND    PRES   REMARKS
#SATUS PASS DOT N/A         53  36  52  CALM    N/A
#CENTERVILLE 4W N/A         57  45  64  W13     29.62R
#CENTERVILLE 1SWN/A         56  44  64  W15     29.78S
#GOLDENDALE     N/A         61  42  50  W18G32  N/A
#GOLDENDALE 1NE N/A         59  36  42  SW2     N/A
#GOLDENDALE 1S  N/A         56  44  64  SW5     29.83R
#GOLDENDALE 5WNWN/A         59  43  55  SW22    29.77S
#GOODNOE HILLS  N/A         61  47  60  W26G36  29.78R
#LYLE 6NE       N/A         58  48  69  W14     29.78F
$$

WAZ026-030610-
KITTITAS VALLEY

CITY            SKY/WX      TMP DP  RH  WIND    PRES   REMARKS
ELLENSBURG AP   PTCLDY      56  43  62  NW20    29.80R
#ELLENSBURG CWU N/A         56  43  62  NW18    29.70S
#ELLENSBURG 3NE N/A         54  44  69  N8      29.80S
#ELLENSBURG     N/A         58  46  64  NW10    N/A
#ELLENSBURG 1E  N/A         57  41  55  NW1     N/A
#KITTITAS 3S    N/A         52  45  77  W2      29.73R
#THORP 6N       N/A         49  43  80  N16G24  29.75R WCI 43
$$

WAZ027-030610-
YAKIMA VALLEY

CITY            SKY/WX      TMP DP  RH  WIND    PRES   REMARKS
SUNNYSIDE AP    PTCLDY      61  39  44  W6      29.78R
YAKIMA AIRPORT  CLEAR       63  39  41  W26G38  29.76R
YAKIMA-VAGABOND MOCLEAR     59  38  45  W5      29.79R
#COWICHE 1N     N/A         59  40  49  W2      29.95S
#DONALD 2NE     N/A         61  33  35  E2      30.12R
#GRANDVIEW      N/A         64  37  37  W2      29.77R
#MABTON         N/A         65  42  43  W7      29.77R
#MOXEE 2E       N/A         61  28  28  W7      29.74R
#NACHES 2SW     N/A         57  41  55  CALM    29.87S
#TERRACE HTS    N/A         60  40  47  CALM    29.71R
#TOPPENISH      N/A         63  41  44  W7      29.67R
#WAPATO 4NE     N/A         61  33  35  E2      30.12R
#WEST VALLEY    N/A         61  39  44  SW5     29.73R
#W YAKIMA       N/A         61  41  48  W2      29.73R
#WHITE SWAN 5E  N/A         61  42  50  SW15    29.75S
#WILEY CITY 3W  N/A         59  34  39  CALM    29.74S
$$

WAZ028-030610-
LOWER COLUMBIA BASIN...WASHINGTON

CITY            SKY/WX      TMP DP  RH  WIND    PRES   REMARKS
PASCO           PTCLDY      69  48  47  W20G26  29.75R
PROSSER AWOS    N/A         63  41  44  W14     29.80R
RICHLAND AWOS   PTCLDY      70  45  41  W14     29.75R
#BASIN CITY 5SW N/A         64  48  56  W6      29.74R
#BENTON CITY    N/A         65  43  45  W13     29.63R
#CONNELL 5N     N/A         63  43  48  NW6     29.67R
#CONNELL 5NW    N/A         62  45  54  W9      29.66R
#ELTOPIA        N/A         66  49  54  W7      29.69R
#ELTOPIA 6NW    N/A         63  49  60  W8      28.72R
#KENNEWICK 3S   N/A         66  48  52  NW3     29.74R
#PATERSON       N/A         65  46  50  W15G24  29.75R
#PROSSER DOT    N/A         68  46  45  W20     N/A
#PROSSER        N/A         65  39  38  W13G26  29.74R
#SAGEMOOR 2W    N/A         66  51  58  W9      29.57R
#TOUCHET 2S     N/A         67  50  54  SW20G26 29.72R
#WEST PASCO     N/A         69  48  47  SW6     29.72R
$$

WAZ029-030610-
FOOTHILLS OF THE BLUES...WASHINGTON

CITY            SKY/WX      TMP DP  RH  WIND    PRES   REMARKS
WALLA WALLA AP  CLOUDY      67  48  50  SW15    29.80R
#COLLEGE PLACE  N/A         70  46  42  SW3     29.76R
#DAYTON SCHOOL  N/A         65  43  45  NE9G32  29.76R
#LOWDEN 2SE     N/A         67  50  54  W12     29.73R
#PLEASANT VIEW 1N/A         65  45  48  SW5     29.72R
#PRESCOTT       N/A         67  50  54  SW1     29.71R
#SUDBURY        N/A         67  N/A N/A CALM    N/A
#WHITMAN COLLEGEN/A         67  49  52  SW9     29.79R
#WAITSBURG 8N   N/A         63  36  36  S13     29.68R
#WALLA WALLA 5E N/A         77  50  39  S15     N/A
#WALLA WALLA U  N/A         68  50  53  SW6     29.74R
#WHITMAN MISSIONN/A         67  50  54  SW15    29.76R
$$

WAZ030-030610-
BLUE MOUNTAINS...WASHINGTON

CITY            SKY/WX      TMP DP  RH  WIND    PRES   REMARKS
$$

ORZ009-041-WAZ024-030610-
COLUMBIA RIVER GORGE

CITY            SKY/WX      TMP DP  RH  WIND    PRES   REMARKS
HOOD RIVER AP   MOCLDY      64  46  52  SW6     29.89S
THE DALLES AP   CLOUDY      66  45  47  W10     29.86R
#ARLINGTON AIRPON/A         63  47  56  W22     N/A
#ARLINGTON HS   N/A         66  47  50  NW12    29.70R
#MARYHILL       N/A         63  44  50  NW21G29 N/A
#MARYHILL 2W    N/A         62  49  62  W8      N/A
#MOSIER 1S      N/A         62  39  43  W8      29.88S
#MURDOCK        N/A         67  52  59  W7G28   29.86S
#RUFUS DOT      N/A         N/A N/A N/A N9      N/A

$$

ORZ510-030610-
NORTH CENTRAL OREGON

CITY            SKY/WX      TMP DP  RH  WIND    PRES   REMARKS
#CHENOWITH 1W   N/A         57  45  64  W35     N/A
#COW CYN RST AREN/A         57  42  57  W8      N/A
#GRASS VALLEY   N/A         57  43  59  S2      N/A
#GRASS VALLEY 1SN/A         57  43  59  NW7     29.86R
#KENT DOT       N/A         54  43  66  W10     N/A
#MAUPIN SCHOOL  N/A         65  46  50  W8      28.76R
#MORO SCHOOL    N/A         59  50  72  W14     29.89R
#SHANIKO 5WSW   N/A         54  41  61  W10     N/A
#SHANIKO 4NW    N/A         54  45  71  W16G26  29.93R
#TYGH VALLEY 2NEN/A         63  43  48  W10     29.83R
#WAPANITIA AIRPON/A         58  44  60  W12     29.86R
#WASCO DOT      N/A         61  46  58  W12     N/A
#WASCO 5NE      N/A         59  46  62  N9      29.80R
$$

ORZ511-030610-
CENTRAL OREGON

CITY            SKY/WX      TMP DP  RH  WIND    PRES   REMARKS
BEND AIRPORT    CLEAR       57  41  55  CALM    29.96S
MADRAS AIRPORT  MOCLDY      61  45  56  NW8     29.93R
REDMOND AIRPORT CLEAR       60  44  55  NW20G29 29.93R
#BEND 6E        N/A         57  40  53  CALM    29.75F
#BEND 1SW       N/A         58  41  53  N1      N/A
#BEND-AWBREY    N/A         56  44  64  CALM    29.82R
#BEND-KIM LN    N/A         55  44  66  CALM    29.92R
#CROOKED RVR RANN/A         61  47  60  W8      29.82R
#CULVER         N/A         62  45  54  SW7     29.88R
#LAKE BILLY CHINN/A         62  21  20  SW3     29.97R
#POWELL BUTTE 3EN/A         58  44  60  W7      N/A
#POWELL BUTTE   N/A         57  43  59  NW7     29.59S
#PRINEVILLE 3N  N/A         59  45  60  W2      29.79R
#WARM SPRINGS   N/A         66  47  50  W8      29.88R


ORZ509-030610-
EAST SLOPES OF OREGON CASCADES

CITY            SKY/WX      TMP DP  RH  WIND    PRES   REMARKS
#BLUE BOX PASS  N/A         45  -5  12  NW3     N/A
#BLACK BUTTE RNCN/A         58  48  69  CALM    29.86R
#CAMP SHERMAN   N/A         58  45  62  CALM    29.83F
#LA PINE DOT    N/A         54  42  64  W6      N/A
#LA PINE 4NW    N/A         52  42  69  CALM    29.91R
#LAVA BUTTE DOT N/A         52  39  61  SW3     N/A
#SISTERS AIRPOR N/A         59  52  78  N1      29.94R
#SISTERS ODOT   N/A         59  N/A N/A S7      N/A
#SISTERS 3N     N/A         58  45  62  CALM    N/A
#SUNRIVER       N/A         55  44  66  E2      29.74R
#SUNRIVER AP    N/A         55  44  66  W5      29.81S
#SUTTLE LK DOT  N/A         51  45  80  W2      N/A
#TUMALO 3W      N/A         58  44  60  N12     29.70R
#WANOGA BUTTE D N/A         47  39  74  S2      N/A

$$

ORZ044-030610-
LOWER COLUMBIA BASIN...OREGON

CITY            SKY/WX      TMP DP  RH  WIND    PRES   REMARKS
HERMISTON       CLEAR       65  49  56  W21G29  29.79R
#BOARDMAN SCHOOLN/A         72  49  44  NW18G29 29.78R
#BOARDMAN 3W    N/A         65  44  46  W17     29.50R
#BOARDMAN 8SW   N/A         65  48  54  SW18    29.79R
#IONE SCHOOL    N/A         63  45  52  SW15G26 29.84R
#IRRIGON 4NW    N/A         68  50  53  SW16G30 N/A
#UMATILLA SCHOOLN/A         66  55  68  W8      29.83R
#UMATILLA       N/A         67  47  49  SW13    29.76R
$$

ORZ507-030610-
NORTHERN FOOTHILLS OF THE BLUES

CITY            SKY/WX      TMP DP  RH  WIND    PRES   REMARKS
PENDLETON AIRPT PTCLDY      62  46  56  W31G43  29.78F
#ADAMS 3WNW     N/A         62  47  58  SW13    29.77R
#ATHENA         N/A         62  47  58  S2      29.80R
#HELIX SCHOOL   N/A         61  47  60  SW13G28 29.75R
#HELIX 3N       N/A         59  47  64  N25G36  29.78R
#HOLDMAN 5SE    N/A         62  48  60  W15     29.83R
#HOLDMAN 6E     N/A         60  47  62  NE15G33 29.57R
#M-F GROVE ELEM N/A         66  45  47  SW13G24 29.79R
#M-FREEWATER 5SEN/A         65  49  56  SW15    29.81R
#PENDLETON DNTN N/A         66  40  38  W3      29.75S
#PDT AQUATIC CTRN/A         66  44  45  W15G25  29.81S
#PDT SUNRIDGE   N/A         65  46  50  W14G28  29.81R
#PENDLETON 7NW  N/A         63  48  58  W16G26  28.82S
#PILOT ROCK     N/A         62  44  52  W7      29.85F
#TUTUILLA       N/A         65  47  52  S7      29.74R
#UMAPINE 2E     N/A         66  50  56  SW14G24 29.75R
#WESTON SCHOOL  N/A         62  44  52  NW15    29.80S

$$

ORZ508-030610-
SOUTHERN FOOTHILLS OF THE BLUES

CITY            SKY/WX      TMP DP  RH  WIND    PRES   REMARKS
LEXINGTON       CLOUDY      63  45  52  W21G30  29.88R
#AJAX           N/A         59  43  55  W13     29.83R
#CONDON 5W      N/A         54  44  69  W16G24  29.88R
#HEPPNER EOC    N/A         60  46  60  NW17G28 29.77R
#HEPPNER 4NE    N/A         57  45  64  W21G33  29.79R
#LEXINGTON 2SE  N/A         64  46  52  NW15G26 29.84R
#MIKKALO        N/A         61  44  53  W17G32  29.87R
#OLEX 4N        N/A         62  47  58  W22G35  29.84R
#RUGGS 5NE      N/A         57  48  72  W16     30.07R
#RUGGS 2SW      N/A         58  48  69  NW9     29.85R

$$

ORZ502-503-030610-
BLUE MOUNTAINS

CITY            SKY/WX      TMP DP  RH  WIND    PRES   REMARKS
MEACHAM         MOCLDY      54  44  69  MISG    29.90R
#BATTLE MTN DOT N/A         51  50  96  N1      N/A
#HEPPNER 15SE   N/A         51  46  83  NW6     29.82S
#LADD CYN SMT   N/A         57  35  43  NW15    N/A
#LADD CREEK ODOTN/A         60  42  51  NE6     N/A
#N POWDER DOT   N/A         60  42  51  N16G24  N/A
#PIKES PEAK     N/A         54  46  74  SW28G39 27.99S
#TOLLGATE       N/A         47  42  83  SW7     29.83F
#TOLLGATE 9W    N/A         57  46  67  W7      N/A
#TROY SCHOOL    N/A         69  46  44  SW6     29.56R
#UKIAH          N/A         54  45  71  N1      29.85R
#WESTON 4E      N/A         56  45  66  S9      29.71R
$$

ORZ505-030610-
JOHN DAY BASIN

CITY            SKY/WX      TMP DP  RH  WIND    PRES   REMARKS
JOHN DAY        CLEAR       62  42  48  NW15    29.90R
#JOHN DAY KJDY  N/A         65  42  43  W2      29.99F
#MONUMENT HS    N/A         64  44  48  CALM    29.88R
#MT. VERNON 5SE N/A         59  41  51  CALM    29.86R
#WINLOCK        N/A         58  44  60  CALM    29.98S
$$

ORZ506-030610-
OCHOCO AND JOHN DAY HIGHLANDS

CITY            SKY/WX      TMP DP  RH  WIND    PRES   REMARKS
#BUCK CREEK DOT N/A         59  47  64  NW18    N/A
#HORSE RIDGE DO N/A         54  41  61  W1      N/A
#KEYES SMT DOT  N/A         55  -50  1  NW12    N/A
#PAULINA SCHOOL N/A         N/A N/A N/A W1      29.92R
#PINE MTN OBS   N/A         46  39  76  NW6     N/A
#PRAIRIE CITY   N/A         59  41  51  NW3     29.82R
#SENECA 9NW     N/A         56  39  53  NE1     29.75R
$$

ORZ049-030610-
GRANDE RONDE VALLEY

CITY            SKY/WX      TMP DP  RH  WIND    PRES   REMARKS
LA GRANDE       CLEAR       63  37  38  NW15    29.85R
#COVE           N/A         60  46  60  CALM    29.80R
#COVE SCHOOL    N/A         60  44  55  CALM    29.86R
#COVE 6NW       N/A         59  42  53  W7      29.83R
#ELGIN 3N       N/A         61  40  46  W3      29.58R
#ELGIN 1E       N/A         63  43  48  W6      N/A
#ISLAND CITY 4N N/A         61  45  56  CALM    29.70R
#LADD CYN DOT   N/A         61  40  46  N6      N/A
#LA GRANDE ELEM N/A         61  43  51  S2      29.85R
#UNION 1S       N/A         63  44  50  N6      29.67R
$$

ORZ050-030610-
WALLOWA COUNTY

CITY            SKY/WX      TMP DP  RH  WIND    PRES   REMARKS
#ENTERPRISE AP  N/A         60  37  42  NW21G29 29.76S
#ENTERPRISE HS  N/A         60  41  49  W9G24   29.82R
#IMNAHA SCHOOL  N/A         71  35  27  CALM    29.70R
#IMNAHA 10S     N/A         67  38  34  SW6     29.78
#JOSEPH 3N      N/A         56  40  55  NW6     29.85S
#JOSEPH 3W      N/A         53  39  59  CALM    29.71R
#LOSTINE        N/A         62  42  48  CALM    29.52R
#MT HOWARD 8000 N/A         50  33  52  W1      29.98F
#PROMISE 1S     N/A         57  43  59  E14     29.81R
#SHEEP RDG 7000 N/A         47  N/A N/A CALM    29.64F
#WALLOWA SCHOOL N/A         64  42  45  W5      30.63R



$$



USA.gov is the U.S. government's official web portal to all federal, state and local government web resources and services.